Date,TemperatureHighF,TemperatureAvgF,TemperatureLowF,DewpointHighF,DewpointAvgF,DewpointLowF,HumidityHigh,HumidityAvg,HumidityLow,PressureMaxIn,PressureMinIn,WindSpeedMaxMPH,WindSpeedAvgMPH,GustSpeedMaxMPH,PrecipitationSumIn
2013-12-1,53,45,37,39,33,29,83,63,53,30.24,29.97,12,1,12,0.00
2013-12-2,55,43,30,44,37,28,93,81,65,29.97,29.77,7,0,7,0.00
2013-12-3,57,48,36,50,45,34,96,90,77,29.86,29.76,10,0,10,0.00
2013-12-4,70,59,45,60,54,43,97,85,69,29.83,29.70,14,1,14,0.00
2013-12-5,65,47,31,61,43,29,94,88,81,30.16,29.79,17,3,17,0.51
2013-12-6,31,27,24,30,26,22,94,92,91,30.43,30.13,15,4,15,0.13
2013-12-7,26,22,19,23,20,16,93,89,85,30.62,30.42,8,2,8,0.00
2013-12-8,31,26,21,30,24,18,96,93,88,30.51,30.08,9,2,9,0.00
2013-12-9,30,27,20,29,24,17,96,90,84,30.29,30.09,10,1,10,0.00
2013-12-10,30,23,16,24,19,14,93,86,76,30.42,30.21,6,2,9,0.00
2013-12-11,37,22,12,30,18,10,94,84,66,30.59,30.39,15,2,15,0.17
2013-12-12,29,19,7,15,11,4,91,72,49,30.65,30.42,9,1,9,0.00
2013-12-13,41,30,17,30,21,12,91,72,48,30.43,30.14,8,0,8,0.19
2013-12-14,41,35,31,40,33,29,95,93,88,30.15,29.75,14,2,14,0.66
2013-12-15,31,28,25,29,24,22,92,86,82,30.20,29.99,15,3,15,0.00
2013-12-16,46,34,28,36,30,25,92,83,68,30.19,30.05,12,1,12,0.00
2013-12-17,40,33,22,35,29,20,93,85,75,30.27,30.04,13,2,13,0.00
2013-12-18,43,31,18,24,20,15,94,69,38,30.37,30.14,8,1,8,0.00
2013-12-19,60,48,36,46,35,22,70,59,50,30.17,30.00,10,2,12,0.00
2013-12-20,60,55,48,56,48,37,90,78,55,30.00,29.86,13,2,13,0.08
2013-12-21,66,62,57,62,58,55,96,89,85,29.87,29.51,20,2,20,0.87
2013-12-22,58,53,38,57,51,35,97,94,80,30.03,29.58,12,2,14,0.33
2013-12-23,34,32,25,31,27,20,92,84,73,30.47,30.11,13,4,14,0.02
2013-12-24,25,21,14,20,15,8,86,78,53,30.64,30.45,10,3,15,0.02
2013-12-25,41,20,11,23,13,8,90,76,41,30.51,30.29,9,0,9,0.00
2013-12-26,42,32,23,28,25,19,90,75,54,30.45,30.28,6,1,12,0.00
2013-12-27,50,33,21,32,25,18,92,74,46,30.48,30.38,9,0,9,0.00
2013-12-28,47,36,24,34,28,20,91,73,53,30.39,30.03,5,0,5,0.11
2013-12-29,47,37,27,41,34,24,95,90,78,30.14,29.89,18,2,18,0.54
2013-12-30,28,24,16,24,20,13,89,83,72,30.31,30.14,12,2,12,0.00
2013-12-31,38,26,15,23,19,12,90,75,52,30.48,30.28,11,1,11,0.00